Location: Unspecified
(0.0000°N, 0.0000°E)
Time: 08:59:44
(UTC+00:00)

Explorer 11/Cluster Stage 4 - Pass Details

Date: 20 July 2020
Orbit: 467 x 1259 km, 28.8° (Epoch: 03 August)

Event Time Altitude Azimuth Distance (km) Brightness Sun altitude
Rises 02:29:26 0° 223° (SW) 3,260 - -49.4°
Reaches altitude 10° 02:32:31 10° 210° (SSW) 2,176 - -48.8°
Maximum altitude 02:36:38 25° 155° (SSE) 1,245 - -47.9°
Drops below altitude 10° 02:40:09 10° 98° (E) 1,828 - -47.2°
Sets 02:42:31 0° 84° (E) 2,631 - -46.7°
